Location: Ab? ar R?sh Ba?r?
(24.1861°N, 32.8847°E)
Time: 21:43:32
(UTC+00:00)

Milstar 3 Cent rocket - Pass Details

Date: 28 May 2022
Orbit: 706 x 5146 km, 28.3° (Epoch: 02 July)

Event Time Altitude Azimuth Distance (km) Brightness Sun altitude
Rises 16:13:38 0° 282° (WNW) 9,464 9.8 2.7°
Reaches altitude 10° 16:21:11 10° 283° (WNW) 8,110 9.3 1.1°
Maximum altitude 16:47:56 87° 14° (NNE) 2,854 4.9 -4.4°
Drops below altitude 10° 16:59:38 10° 104° (ESE) 4,024 5.1 -6.8°
Enters shadow 17:00:25 - 104° (ESE) 4,229 5.2 -6.9°
